CZ-4C DEB, 43266

Orbit data source: Space-Track

CZ-4C DEB, 43266 is space debris in SSO originally from a launch on Sat, 31 Mar 2018 UTC launched from the Taiyaun Space Center, China (TSC). Debris objects in space refer to the collection of defunct objects orbiting the Earth. Examples of debris include non-operational satellites, rocket bodies, and fragments generated from explosions, collisions, or faulty payload assembly.

Loading next visibility...
Identifier
43266, 2018-031H
Orbit
SSO
Last TLE update
16 hours ago
Origin
Manufacturer
Unknown
Mission
Spacecraft
Bus & Motor
Unknown
Mass
Unknown
Launch date (UTC)
2018-03-31 (7 years ago)
Launch vehicle
Unknown
Launch site
Taiyaun Space Center, China (TSC)
Object type
Payload
Rocket body
Debris
Shape & HBR
Unknown
Radar Cross Section
Small (<0.1 m²)

Expand to show TLE details & history

TLE from 16 hours ago
0 CZ-4C DEB
1 43266U 18031H   25129.21372346  .00011808  00000-0  80084-3 0  9992
2 43266  98.1386 279.4581 0023456 217.7088 142.2494 15.06381446385760
Epoch: 2025-05-09T05:07Z
Definitive object data (Epoch: 2025-05-09T05:07:45.706Z)
Latitude
-0.0001°
Longitude
-24.75541°
Altitude
563.179 km
Speed
7.573 km/s
True Right ascension
18h 37m 49s
True Declination
0° 00' 00"
Sunlit
Object was in full shadow at TLE epoch
Visualization TLE readout
Latitude
-64.60804°
Longitude
-6.6311°
Altitude
568.677 km
Speed
7.577 km/s
Apparent Right ascension
18h 02m 16s
Apparent Declination
-54° 29' 09"
Sunlit
Object is in full shadow
Visualization observer readout
Local Sidereal Time
04:57:58
Azimuth
211.149° SW
Elevation
-71.882°
Doppler factor
1
Orbital elements
Apogee altitude
560.522 km
Perigee altitude
528.048 km
Semi-major axis
6,922.422 km
Eccentricity
0.0023456
Inclination
98.1386°
RAAN
279.4581°
Arg. of periapsis
217.7088°
True anomaly
142.41358°
Mean anomaly
142.2494°
Eccentric anomaly
142.33153°
Mean motion
3.76839 °/min
BSTAR
0.00080084
Orbital period
95.53 mins
Loading maneuver chart data...
Loading SW <> Apogee altitude chart data...
Loading historical data...
Loading historical data...
Loading historical data...
Loading historical data...
Loading historical data...
Loading historical data...
Loading historical data...

CZ-4C DEB Visibility forecast

Observer location: undefined°, undefined°

Span
Click to sort rows by Start time (UTC) header in descending order
Start Az.
Max El. time (UTC)
Max El. Az.
Max El.
End time (UTC)
End Az.
5 mins2025-05-09 23:14:46.567Z351.012° N2025-05-09 23:16:46.567Z290.388° WNW37.21°2025-05-09 23:19:46.567Z215.365° SW
6 mins2025-05-10 09:57:46.567Z163.74° S2025-05-10 09:59:46.567Z155.507° SSE42.768°2025-05-10 10:03:46.567Z348.322° N
|